Location: São Paulo
(23.5507°S, 46.6334°W)
Time: 10:00:44
(UTC-03:00)

Explorer 7 - Pass Details

Date: 22 February 2026
Orbit: 430 x 541 km, 50.2° (Epoch: 11 March)

Event Time Altitude Azimuth Distance (km) Brightness Sun altitude
Rises 09:44:37 0° 241° (WSW) 2,505 9.8 50.6°
Reaches altitude 10° 09:47:15 10° 260° (W) 1,600 8.9 51.2°
Maximum altitude 09:49:49 19° 306° (NW) 1,144 8.4 51.8°
Drops below altitude 10° 09:52:21 10° 352° (N) 1,550 9.3 52.3°
Sets 09:54:51 0° 11° (N) 2,396 10.3 52.9°
